Zurück zum Katalog

FENGYUN 1C DEB

LostSSO
NORAD 31684·DEBRIS·🇨🇳 China

Gestartet May 10, 1999 von Taiyuan Satellite Launch Center

Loading…

Nächste Überflüge (nächste 24 Stunden)

TLE

VeraltetSource: Space-Track

Epoche: Aug 21, 2022, 01:44 UTC

1 31684U 99025CCS 22233.07256797  .00001341  00000-0  74417-3 0  9997
2 31684  98.9645 317.6805 0058013 149.4202 211.0373 14.12058536782902

Verfolge FENGYUN 1C DEB in Echtzeit mit AllMySat

Download on the App Store